Burleson, TX

6:58 PM CST on January 24, 2017 (GMT -0600)
Fort Worth Spinks

Weather History for KFWS - November, 2012

Change the Weather History Date:

Thursday, November 1, 2012

  Actual Average (KNFW) Record (KNFW)
Temperature  
Mean Temperature 66 °F -  
Max Temperature 89 °F 68 °F 88 °F (2012)
Min Temperature 44 °F 52 °F 42 °F (1996)
Cooling Degree Days 2    
Growing Degree Days 16 (Base 50)    
Moisture  
Dew Point 46 °F    
Average Humidity 66    
Maximum Humidity 93    
Minimum Humidity 20    
Precipitation  
Precipitation 0.00 in - - ()
Sea Level Pressure  
Sea Level Pressure 30.00 in    
Wind  
Wind Speed 2 mph (SW)    
Max Wind Speed 9 mph    
Max Gust Speed -    
Visibility 10 miles    
Events      
Averages and records for this station are not official NWS values.
T = Trace of Precipitation, MM = Missing Value Source: NWS Daily Summary

Daily Weather History Graph

Daily Weather History Graph

Search for Another Location

Airport or City:

Trip Planner

Search our weather history database for the weather conditions in past years. The results will help you decide how hot, cold, wet, or windy it might be!

Date:

Astronomy

Nov. 01, 2012 Rise Set
Actual Time 7:47 AM CDT 6:38 PM CDT
Civil Twilight 7:21 AM CDT 7:03 PM CDT
Nautical Twilight 6:52 AM CDT 7:32 PM CDT
Astronomical Twilight 6:23 AM CDT 8:01 PM CDT
Moon 8:43 PM CDT (11/1) 10:13 AM CDT (11/1)
Length of Visible Light 11h 41m
Length of Day
10h 50m
Waning Gibbous, 93% of the Moon is Illuminated
Nov 1
Waning Gibbous
Nov 6
Last Quarter
Nov 13
New
Nov 20
First Quarter
Nov 28
Full

Hourly Weather History & Observations

Time (CDT) Temp. Dew Point Humidity Pressure Visibility Wind Dir Wind Speed Gust Speed Precip Events Conditions
12:15 AM 53.6 °F 46.4 °F 77% 30.04 in 10.0 mi Calm Calm - N/A   Clear
12:35 AM 51.8 °F 44.6 °F 76% 30.04 in 10.0 mi Calm Calm - N/A   Clear
1:15 AM 50.0 °F 44.6 °F 82% 30.03 in 10.0 mi Calm Calm - N/A   Clear
1:35 AM 51.8 °F 44.6 °F 76% 30.03 in 10.0 mi Calm Calm - N/A   Clear
1:55 AM 48.2 °F 44.6 °F 87% 30.03 in 10.0 mi Calm Calm - N/A   Clear
2:15 AM 50.0 °F 44.6 °F 82% 30.03 in 10.0 mi Calm Calm - N/A   Clear
2:35 AM 50.0 °F 42.8 °F 76% 30.02 in 10.0 mi Calm Calm - N/A   Clear
3:15 AM 46.4 °F 44.6 °F 93% 30.02 in 10.0 mi Calm Calm - N/A   Clear
3:35 AM 51.8 °F 44.6 °F 76% 30.02 in 10.0 mi South 3.5 mph - N/A   Clear
3:55 AM 50.0 °F 42.8 °F 76% 30.02 in 10.0 mi South 3.5 mph - N/A   Clear
4:15 AM 48.2 °F 44.6 °F 87% 30.01 in 10.0 mi Calm Calm - N/A   Clear
4:35 AM 50.0 °F 44.6 °F 82% 30.01 in 10.0 mi Calm Calm - N/A   Clear
4:55 AM 50.0 °F 44.6 °F 82% 30.01 in 10.0 mi Calm Calm - N/A   Clear
5:15 AM 46.4 °F 42.8 °F 87% 30.01 in 10.0 mi Calm Calm - N/A   Clear
5:35 AM 46.4 °F 42.8 °F 87% 30.01 in 10.0 mi Calm Calm - N/A   Clear
5:55 AM 46.4 °F 44.6 °F 93% 30.01 in 10.0 mi Calm Calm - N/A   Clear
6:15 AM 50.0 °F 44.6 °F 82% 30.01 in 10.0 mi Calm Calm - N/A   Clear
6:52 AM 48.2 °F 44.6 °F 87% 30.02 in 10.0 mi Calm Calm - N/A   Clear
7:51 AM 44.6 °F 42.8 °F 93% 30.03 in 10.0 mi Calm Calm - N/A   Clear
8:55 AM 53.6 °F 48.2 °F 82% 30.04 in 10.0 mi Calm Calm - N/A   Clear
9:49 AM 62.6 °F 50.0 °F 63% 30.06 in 10.0 mi Calm Calm - N/A   Clear
10:49 AM 75.2 °F 50.0 °F 41% 30.07 in 10.0 mi West 6.9 mph - N/A   Clear
11:49 AM 80.6 °F 50.0 °F 34% 30.06 in 10.0 mi West 6.9 mph - N/A   Clear
1:48 PM 87.8 °F 46.4 °F 24% 30.00 in 10.0 mi West 8.1 mph - N/A   Clear
2:51 PM 87.8 °F 42.8 °F 21% 29.97 in 10.0 mi WSW 9.2 mph - N/A   Clear
3:47 PM 89.6 °F 42.8 °F 20% 29.95 in 10.0 mi South 8.1 mph - N/A   Clear
4:47 PM 87.8 °F 42.8 °F 21% 29.95 in 10.0 mi SW 9.2 mph - N/A   Clear
5:50 PM 84.2 °F 44.6 °F 25% 29.94 in 10.0 mi SSW 9.2 mph - N/A   Clear
6:48 PM 77.0 °F 46.4 °F 34% 29.95 in 10.0 mi Calm Calm - N/A   Clear
7:55 PM 64.4 °F 50.0 °F 59% 29.96 in 10.0 mi Calm Calm - N/A   Clear
8:15 PM 66.2 °F 50.0 °F 56% 29.96 in 10.0 mi Calm Calm - N/A   Clear
8:35 PM 64.4 °F 50.0 °F 59% 29.96 in 10.0 mi Calm Calm - N/A   Clear
8:55 PM 62.6 °F 50.0 °F 63% 29.96 in 10.0 mi Calm Calm - N/A   Clear
9:15 PM 60.8 °F 50.0 °F 68% 29.97 in 10.0 mi Calm Calm - N/A   Clear
9:35 PM 59.0 °F 50.0 °F 72% 29.97 in 10.0 mi SSW 3.5 mph - N/A   Clear
9:55 PM 59.0 °F 50.0 °F 72% 29.97 in 10.0 mi South 3.5 mph - N/A   Clear
10:15 PM 59.0 °F 50.0 °F 72% 29.97 in 10.0 mi SSW 3.5 mph - N/A   Clear
10:35 PM 62.6 °F 48.2 °F 59% 29.98 in 10.0 mi SSW 3.5 mph - N/A   Clear
10:55 PM 62.6 °F 48.2 °F 59% 29.98 in 10.0 mi SSW 3.5 mph - N/A   Clear
11:15 PM 64.4 °F 46.4 °F 52% 29.98 in 10.0 mi SSW 4.6 mph - N/A   Clear
11:35 PM 62.6 °F 48.2 °F 59% 29.97 in 10.0 mi SSW 5.8 mph - N/A   Clear
11:55 PM 62.6 °F 48.2 °F 59% 29.97 in 10.0 mi SSW 5.8 mph - N/A   Clear